Location: Arroyo Mobile Home Park
(34.3733°N, 119.3071°W)
Time: 10:10:41
(UTC+00:00)

ARGOS - Pass Details

Date: 03 August 2024
Orbit: 818 x 834 km, 98.4° (Epoch: 10 September)

Event Time Altitude Azimuth Distance (km) Brightness Sun altitude
Rises 12:32:06 0° 16° (NNE) 3,373 7.0 -7.9°
Reaches altitude 10° 12:34:30 10° 19° (NNE) 2,433 6.3 -7.5°
Maximum altitude 12:39:51 66° 101° (E) 898 3.6 -6.5°
Drops below altitude 10° 12:45:09 10° 184° (S) 2,408 5.3 -5.5°
Sets 12:47:30 0° 187° (S) 3,335 6.0 -5.1°
